Starlink 34215

operational
NORAD ID: 64252 Int'l Des: 2025-119 Owner: SPXS Country: US Constellation: starlink
LEOCIRCULAR

关于 Starlink 34215

正在加载描述...

实时位置

正在加载3D地球...

即将过境

高度历史

Altitude vs Time

uPlot chart will show altitude changes over time

两行轨道根数

1 64252U 25119V 25354.20755668 .00019126 00000-0 70290-3 0 9995
2 64252 43.0002 35.9195 0001089 236.9477 123.1270 15.27572282 32011
Epoch: Dec 20, 2025 • Age: 14 hours

当前状态

高度 486.5 km
速度 7.63 km/s
星下点 41.67°N, 82.96°E
发射日期 Jun 3, 2025
运行时间 0.5 years
类型 internet

技术详情

分类 Payload
质量 575.00 kg
干质量 530.00 kg
总质量 575.00 kg
长度 0.30 m
直径 4.10 m
跨度 29.00 m
形状 Box + pan
制造商 SPXS
平台类型 Starlink V2MO
阶段状态 In Orbit
所有者/国家 SPXS/US

大型星座

Loading constellations...